Wind_Speed
5 5 5 4 3 3 3 3 3 3 3 3 3 3 3 3 2 2 2 2 2 2 3 2 3 3 4 4 4 5 5 5 5 6 7 7 7 7 8 9 9 9 10
6 5 4 4 3 3 4 3 3 3 3 3 3 3 3 3 2 2 2 2 3 2 2 2 2 3 4 4 4 4 5 6 6 6 7 8 8 8 8 8 9 9 9
5 5 4 3 3 3 2 2 3 2 2 2 2 3 3 3 3 3 3 3 3 2 2 2 3 3 4 4 4 5 5 5 6 6 7 8 8 9 9 9 9 9 9
4 4 4 3 3 2 2 2 2 1 1 1 2 2 3 4 4 4 3 3 2 3 3 3 3 4 4 4 5 5 5 6 6 7 8 8 8 9 9 9 9 9 9
4 3 3 3 3 3 2 2 1 1 1 1 1 2 3 4 5 4 3 3 4 4 4 4 4 4 5 6 6 6 6 6 7 7 8 8 8 9 9 10 10 10 10
4 3 3 2 2 2 3 2 2 1 1 1 1 2 3 3 4 4 5 5 5 5 6 6 5 5 6 7 7 6 6 7 7 7 8 8 9 9 10 11 11 11 11
4 3 3 3 3 3 3 2 2 2 2 1 2 2 3 3 3 3 4 5 5 6 6 6 6 6 6 6 7 7 7 7 8 8 8 9 9 9 10 11 11 12 12
6 4 4 5 5 5 4 3 3 3 3 3 2 3 4 3 4 5 6 6 7 7 7 7 8 7 7 7 8 8 8 8 8 9 9 9 10 10 11 11 11 11 12
6 6 5 5 5 5 5 5 4 4 4 4 4 4 5 5 5 6 6 7 8 8 8 8 9 9 9 9 9 9 9 9 9 9 10 9 10 11 11 12 12 12 13
7 7 7 7 5 5 6 5 4 4 4 5 5 5 5 6 6 6 7 7 8 9 9 9 9 9 9 10 10 10 10 10 11 12 12 11 11 11 12 12 12 13 13
7 7 7 7 6 6 6 5 5 5 6 6 6 7 7 7 7 7 7 7 8 9 10 10 11 11 11 11 11 12 11 11 12 12 12 12 12 12 13 14 14 14 14
7 7 7 7 7 7 7 7 7 7 7 8 8 8 8 8 8 8 8 8 8 9 9 11 11 11 12 12 12 12 12 12 12 12 13 13 14 14 15 16 15 15 15
8 8 8 8 8 8 8 9 9 9 9 10 10 10 9 9 9 9 10 10 10 10 11 11 11 11 11 12 12 12 13 13 13 13 14 15 15 16 16 16 16 16 16
10 10 10 10 10 10 10 10 10 10 11 11 11 11 11 11 11 11 11 11 11 11 11 11 12 12 13 13 13 13 14 15 15 15 15 16 17 16 16 17 18 18 18
11 11 11 11 11 11 12 11 11 11 12 11 12 13 13 13 13 13 12 12 13 13 12 12 13 13 14 14 14 14 15 15 15 17 18 18 18 18 18 18 19 19 19
12 12 13 12 12 13 13 13 13 12 12 12 14 14 14 14 14 14 14 15 15 15 14 14 15 15 15 16 15 16 16 16 17 18 18 19 19 19 19 20 20 20 20
13 13 14 14 14 15 15 15 14 14 14 14 15 15 15 16 16 16 16 15 15 16 16 17 17 16 17 17 17 17 17 18 18 18 19 20 21 21 21 21 21 22 22
14 14 15 16 16 16 16 16 15 15 15 16 16 16 17 18 17 17 17 17 17 17 17 17 18 18 18 18 19 19 19 19 20 20 20 21 21 21 22 22 22 22 23
15 16 16 17 17 17 17 17 17 17 17 17 17 17 18 18 18 18 18 18 19 18 18 19 19 19 19 19 19 20 21 21 21 22 22 22 22 22 22 23 23 23 23
16 17 18 18 18 18 19 19 18 18 18 18 19 19 19 20 19 20 20 20 21 20 21 21 21 21 22 22 21 22 22 23 23 23 23 23 23 24 23 24 24 25 25
18 18 19 19 19 20 20 20 20 20 19 20 20 20 20 20 21 21 22 22 22 22 23 23 23 23 24 24 24 24 24 24 25 25 25 25 25 25 25 25 25 26 26
21 21 21 21 21 21 21 21 22 22 21 21 21 22 22 23 23 24 24 24 23 23 24 25 25 25 25 26 26 26 26 25 26 27 27 27 27 27 27 27 27 26 26
23 23 23 23 23 23 23 23 23 23 23 23 23 24 24 25 25 26 27 27 26 25 26 27 27 27 27 27 28 28 27 26 26 27 27 27 27 27 27 27 27 27 27
25 25 25 24 25 24 24 24 24 24 24 24 25 25 25 26 27 28 29 29 28 27 28 29 29 29 29 29 29 29 29 28 28 28 28 28 29 28 28 28 27 28 28
27 27 26 26 26 26 26 26 26 25 25 25 26 27 27 27 28 29 29 29 29 29 30 30 30 29 30 31 31 31 30 30 30 30 30 30 29 30 29 29 29 29 29
28 28 28 28 28 28 28 28 28 28 27 27 27 28 29 29 29 30 29 29 30 30 31 32 32 32 32 33 33 33 32 32 31 31 31 31 31 31 29 29 30 30 30
Wind_Direction
94 104 110 110 107 110 126 133 130 153 156 158 179 184 179 174 179 195 210 236 265 286 314 311 304 291 289 277 267 266 275 273 276 281 284 282 280 286 289 282 280 276 269
99 102 103 99 93 108 120 103 120 140 161 168 174 180 186 189 194 201 219 249 267 285 319 324 317 300 296 280 284 279 272 274 273 282 286 286 280 286 291 290 286 283 281
96 100 92 89 92 95 114 114 130 159 174 182 184 183 184 201 207 214 230 251 264 272 289 319 321 310 308 290 297 286 275 268 278 279 283 286 281 283 288 289 287 284 281
86 88 84 76 71 67 91 135 147 138 159 208 225 205 205 213 212 220 241 267 276 282 295 311 315 312 307 298 303 300 282 270 274 277 283 288 284 283 287 288 287 286 282
88 81 67 64 55 53 68 91 51 309 312 298 245 230 242 238 230 235 254 291 287 285 292 304 301 296 297 292 293 297 288 282 278 278 284 289 293 288 285 285 287 287 287
76 75 48 30 40 49 45 52 27 12 356 339 311 271 247 255 261 263 277 284 279 278 286 289 287 288 295 292 292 292 288 285 283 287 287 287 291 291 288 286 285 285 286
54 58 40 16 12 23 25 31 42 35 22 354 326 301 280 263 256 255 275 282 282 287 286 290 287 285 291 293 295 294 290 287 288 291 288 287 288 290 292 292 288 286 285
41 42 24 16 8 6 10 25 18 3 347 346 346 326 312 288 281 272 283 290 295 293 291 291 286 289 291 296 295 292 289 284 287 287 287 287 290 293 293 292 290 288 290
33 29 19 16 18 17 12 10 7 354 334 324 321 317 315 316 299 291 292 296 297 297 296 291 290 295 296 295 294 290 285 283 285 287 288 289 291 293 292 291 291 289 289
25 24 23 19 14 11 2 354 345 335 325 318 311 304 303 309 305 303 305 303 301 298 294 294 291 298 297 296 299 294 286 283 283 286 287 289 293 295 296 295 294 293 291
20 18 15 13 8 357 350 342 330 321 317 312 307 304 303 302 304 303 303 301 296 295 294 292 291 297 298 297 296 293 292 287 286 287 287 287 288 291 294 294 294 293 292
9 5 359 354 354 351 344 335 323 314 307 302 301 301 301 299 299 298 295 297 300 303 295 297 298 297 297 294 295 291 289 287 286 289 288 289 289 289 290 292 292 293 291
355 349 345 342 340 337 329 322 314 307 301 299 298 300 299 293 292 292 293 296 300 304 303 302 304 302 299 297 296 293 290 288 289 291 290 290 290 288 288 291 290 290 291
346 342 337 335 333 332 326 319 312 304 298 296 297 298 296 294 288 289 291 294 298 301 302 302 304 305 306 305 299 294 292 292 289 288 291 292 291 287 287 289 290 289 290
342 337 335 333 331 327 322 317 311 306 300 298 296 295 293 292 290 290 290 289 292 294 295 297 298 299 302 305 302 298 297 296 290 288 290 290 290 288 289 290 289 289 290
338 336 332 331 327 322 318 314 311 306 300 297 294 293 291 291 289 288 289 289 289 292 293 294 295 295 298 300 300 299 296 295 294 292 292 291 289 287 288 292 290 288 288
333 332 328 327 323 319 316 313 309 303 299 296 295 293 291 291 288 286 286 286 287 289 291 293 293 294 294 296 296 298 297 296 295 295 295 293 291 291 289 289 290 290 290
326 325 323 321 319 317 315 311 308 306 302 296 295 293 290 291 288 288 284 282 283 286 289 290 291 292 292 293 294 296 296 294 293 295 296 295 293 291 290 289 289 290 290
320 320 318 316 315 314 314 310 307 306 303 300 297 294 291 291 291 288 284 285 283 286 288 288 289 290 290 291 292 294 295 294 293 294 295 297 296 294 293 289 289 290 290
316 317 318 315 313 311 310 310 308 305 302 301 298 294 293 291 291 289 287 287 286 286 287 288 288 289 289 290 290 291 292 292 294 295 296 296 296 296 293 291 290 290 290
311 312 313 314 311 310 309 307 305 304 302 299 298 294 291 289 288 287 287 287 287 286 287 288 288 289 289 290 290 291 291 292 292 293 295 295 295 295 292 292 291 290 289
306 307 308 309 308 308 306 304 302 300 299 298 297 294 290 288 287 287 287 287 287 287 287 288 288 289 289 289 289 290 290 290 290 290 291 292 293 294 293 291 291 290 289
303 303 302 304 305 306 305 303 302 299 297 296 296 295 293 290 287 287 288 287 288 287 288 289 288 288 287 287 287 288 289 290 289 289 288 289 291 292 292 291 290 290 288
300 299 300 300 303 304 304 303 303 299 297 296 295 294 292 291 290 289 287 287 287 289 288 287 287 287 287 287 287 287 286 287 288 288 288 288 289 290 289 289 289 288 286
299 298 297 299 300 301 301 301 301 299 296 293 292 292 292 292 290 289 287 286 286 287 287 287 287 288 288 287 285 285 284 286 286 286 286 287 287 288 287 287 287 286 286
297 297 297 297 297 297 297 298 298 296 295 293 291 290 291 292 292 290 287 285 286 287 287 287 287 287 287 287 287 286 284 286 286 285 285 284 284 285 284 285 286 286 285
Height
5888 5888 5887 5887 5886 5886 5886 5886 5886 5886 5887 5887 5888 5888 5888 5889 5889 5889 5889 5889 5888 5888 5888 5887 5886 5886 5885 5885 5884 5884 5884 5883 5883 5882 5881 5881 5880 5879 5878 5878 5877 5876 5875
5889 5888 5888 5887 5887 5886 5886 5886 5886 5886 5887 5887 5887 5887 5887 5888 5888 5888 5888 5888 5887 5887 5886 5886 5886 5885 5884 5884 5883 5883 5882 5881 5881 5881 5880 5879 5878 5877 5876 5876 5875 5874 5873
5890 5889 5889 5888 5887 5887 5887 5887 5887 5887 5886 5886 5886 5887 5887 5887 5887 5887 5887 5887 5886 5886 5885 5885 5884 5884 5883 5883 5882 5881 5880 5880 5879 5879 5878 5877 5876 5876 5875 5874 5872 5872 5871
5890 5890 5890 5889 5888 5887 5887 5887 5887 5887 5886 5886 5886 5886 5886 5886 5885 5885 5885 5885 5885 5885 5884 5884 5883 5882 5882 5881 5881 5880 5879 5878 5878 5877 5876 5875 5874 5873 5872 5871 5870 5869 5868
5891 5891 5890 5889 5888 5887 5887 5887 5886 5886 5886 5886 5885 5885 5885 5884 5884 5884 5884 5884 5884 5884 5883 5883 5882 5881 5880 5880 5879 5878 5878 5877 5876 5875 5874 5873 5872 5871 5870 5869 5868 5867 5866
5891 5891 5890 5889 5888 5888 5887 5886 5886 5886 5886 5885 5885 5885 5884 5883 5883 5883 5882 5882 5882 5882 5882 5881 5880 5879 5878 5878 5877 5876 5876 5875 5874 5873 5872 5871 5870 5869 5868 5866 5865 5864 5863
5891 5891 5890 5889 5888 5887 5887 5886 5886 5885 5885 5884 5884 5884 5883 5883 5882 5882 5881 5881 5880 5880 5880 5879 5878 5877 5876 5876 5875 5874 5873 5873 5872 5871 5869 5868 5868 5866 5865 5864 5862 5861 5860
5892 5891 5890 5889 5888 5887 5886 5885 5885 5884 5884 5884 5883 5883 5882 5882 5881 5881 5880 5880 5879 5879 5878 5877 5876 5875 5874 5873 5873 5872 5871 5870 5869 5868 5867 5866 5865 5863 5862 5861 5859 5858 5857
5892 5891 5890 5889 5888 5887 5886 5885 5884 5884 5883 5883 5882 5882 5881 5881 5880 5880 5879 5878 5877 5876 5876 5875 5874 5873 5872 5871 5870 5869 5868 5867 5866 5865 5864 5863 5861 5860 5859 5857 5856 5855 5853
5893 5891 5890 5888 5887 5887 5886 5885 5884 5883 5882 5882 5881 5880 5880 5879 5879 5878 5878 5876 5875 5874 5873 5872 5871 5870 5869 5868 5867 5866 5865 5864 5863 5862 5861 5860 5858 5857 5855 5854 5853 5851 5850
5893 5891 5890 5889 5887 5886 5885 5884 5883 5882 5881 5880 5879 5878 5878 5877 5876 5876 5875 5875 5873 5872 5871 5870 5869 5868 5866 5865 5864 5863 5861 5860 5860 5859 5858 5856 5855 5854 5852 5851 5849 5848 5846
5893 5891 5890 5888 5886 5885 5883 5882 5881 5880 5879 5878 5877 5876 5875 5875 5874 5873 5872 5872 5871 5869 5868 5867 5866 5865 5863 5862 5861 5860 5858 5857 5856 5855 5854 5853 5851 5850 5848 5847 5845 5844 5843
5892 5890 5889 5887 5885 5883 5882 5880 5879 5878 5877 5876 5874 5874 5873 5872 5871 5870 5869 5868 5868 5867 5865 5864 5863 5861 5860 5859 5857 5856 5855 5853 5852 5851 5850 5849 5847 5845 5844 5843 5841 5840 5838
5891 5889 5887 5885 5884 5882 5880 5878 5877 5875 5874 5873 5871 5870 5870 5869 5868 5867 5866 5866 5865 5864 5863 5861 5860 5858 5856 5855 5853 5852 5851 5849 5848 5847 5846 5844 5842 5841 5839 5838 5837 5835 5833
5889 5887 5885 5883 5881 5880 5877 5876 5874 5872 5871 5870 5868 5867 5866 5865 5865 5864 5863 5862 5862 5861 5860 5858 5856 5855 5853 5851 5849 5848 5846 5845 5843 5842 5841 5839 5838 5836 5835 5833 5832 5830 5828
5887 5885 5883 5881 5879 5877 5875 5873 5871 5869 5868 5866 5865 5864 5863 5862 5861 5860 5859 5858 5857 5856 5855 5854 5852 5851 5849 5847 5845 5844 5842 5840 5838 5837 5835 5834 5832 5831 5829 5828 5826 5824 5823
5885 5883 5880 5878 5876 5874 5872 5869 5868 5866 5864 5863 5861 5860 5859 5857 5856 5856 5854 5853 5852 5851 5850 5849 5847 5846 5844 5842 5841 5839 5837 5835 5833 5832 5830 5828 5826 5825 5823 5822 5820 5818 5817
5883 5880 5878 5875 5873 5870 5868 5866 5864 5862 5860 5859 5857 5856 5854 5853 5852 5851 5849 5848 5847 5845 5844 5843 5842 5840 5839 5837 5835 5834 5832 5830 5828 5826 5824 5822 5820 5819 5817 5815 5813 5812 5810
5880 5877 5875 5872 5869 5867 5864 5862 5860 5858 5856 5854 5852 5851 5849 5848 5847 5845 5844 5842 5841 5840 5839 5838 5836 5835 5833 5831 5830 5828 5826 5824 5822 5820 5818 5816 5814 5812 5810 5809 5807 5805 5803
5876 5874 5871 5868 5865 5862 5860 5858 5855 5853 5851 5849 5848 5846 5844 5843 5841 5839 5838 5837 5835 5834 5833 5832 5830 5828 5827 5825 5823 5822 5820 5818 5816 5814 5812 5810 5808 5806 5804 5802 5800 5798 5796
5872 5870 5867 5864 5861 5858 5856 5853 5851 5848 5846 5845 5843 5841 5839 5837 5835 5834 5832 5830 5829 5828 5827 5825 5824 5822 5820 5819 5817 5815 5813 5811 5809 5807 5805 5803 5801 5799 5797 5794 5792 5790 5788
5867 5865 5862 5859 5857 5854 5851 5848 5845 5843 5841 5839 5837 5835 5833 5831 5829 5827 5826 5824 5822 5821 5820 5819 5817 5815 5814 5812 5810 5808 5806 5805 5803 5801 5798 5796 5794 5791 5789 5787 5785 5783 5780
5862 5859 5857 5854 5851 5849 5846 5843 5840 5837 5835 5833 5831 5829 5827 5825 5822 5821 5819 5817 5815 5814 5813 5812 5810 5808 5806 5804 5802 5800 5798 5797 5795 5793 5791 5788 5786 5784 5782 5779 5777 5775 5773
5856 5853 5851 5848 5846 5843 5840 5837 5834 5831 5829 5827 5825 5822 5820 5818 5816 5814 5812 5810 5808 5807 5805 5803 5801 5800 5798 5796 5794 5792 5790 5789 5787 5784 5782 5781 5778 5776 5774 5771 5769 5766 5764
5850 5847 5844 5842 5839 5837 5833 5830 5827 5825 5822 5820 5818 5815 5813 5810 5808 5806 5804 5802 5801 5799 5796 5794 5793 5791 5789 5786 5784 5783 5781 5780 5779 5776 5773 5772 5770 5768 5765 5763 5760 5758 5756
5843 5840 5837 5835 5832 5829 5826 5823 5820 5817 5815 5813 5810 5808 5805 5803 5800 5798 5795 5794 5792 5790 5788 5786 5783 5781 5779 5777 5775 5773 5771 5770 5769 5767 5765 5763 5761 5758 5757 5755 5752 5749 5747